Elm City, NC

5:10 PM EST on February 24, 2017 (GMT -0500)
Rocky Mount-Wilson Regional

Weather History for KRWI - March, 2013

Change the Weather History Date:

Saturday, March 16, 2013

  Actual Average Record
Temperature  
Mean Temperature 63 °F -  
Max Temperature 79 °F 63 °F 86 °F (2016)
Min Temperature 48 °F 39 °F 20 °F (1979)
Degree Days  
Heating Degree Days 2    
Growing Degree Days 13 (Base 50)    
Moisture  
Dew Point 43 °F    
Average Humidity 54    
Maximum Humidity 77    
Minimum Humidity 32    
Precipitation  
Precipitation 0.01 in - - ()
Sea Level Pressure  
Sea Level Pressure 29.79 in    
Wind  
Wind Speed 8 mph (SW)    
Max Wind Speed 15 mph    
Max Gust Speed 23 mph    
Visibility 10 miles    
Events Rain    
Averages and records for this station are not official NWS values.
T = Trace of Precipitation, MM = Missing Value Source: NWS Daily Summary

Daily Weather History Graph

Daily Weather History Graph

Search for Another Location

Airport or City:

Trip Planner

Search our weather history database for the weather conditions in past years. The results will help you decide how hot, cold, wet, or windy it might be!

Date:

Astronomy

Mar. 16, 2013 Rise Set
Actual Time 7:20 AM EDT 7:20 PM EDT
Civil Twilight 6:55 AM EDT 7:45 PM EDT
Nautical Twilight 6:25 AM EDT 8:15 PM EDT
Astronomical Twilight 5:55 AM EDT 8:45 PM EDT
Moon 9:58 AM EDT (3/16) No Moon Set
Length of Visible Light 12h 50m
Length of Day
11h 59m
Waxing Crescent, 23% of the Moon is Illuminated
Mar 16
Waxing Crescent
Mar 19
First Quarter
Mar 27
Full
Apr 3
Last Quarter
Apr 10
New

Hourly Weather History & Observations

Time (EDT) Temp. Dew Point Humidity Pressure Visibility Wind Dir Wind Speed Gust Speed Precip Events Conditions
12:53 AM 51.1 °F 35.1 °F 54% 29.90 in 10.0 mi SSW 8.1 mph - N/A   Clear
1:53 AM 50.0 °F 36.0 °F 59% 29.88 in 10.0 mi SSW 9.2 mph - N/A   Clear
2:53 AM 50.0 °F 37.0 °F 61% 29.86 in 10.0 mi SSW 9.2 mph - N/A   Clear
3:53 AM 48.9 °F 37.0 °F 64% 29.85 in 10.0 mi SSW 6.9 mph - N/A   Clear
4:53 AM 48.0 °F 37.0 °F 66% 29.84 in 10.0 mi SSW 5.8 mph - N/A   Clear
5:53 AM 48.9 °F 37.9 °F 66% 29.84 in 10.0 mi SSW 5.8 mph - N/A   Clear
6:53 AM 48.0 °F 37.9 °F 68% 29.85 in 10.0 mi SSW 4.6 mph - N/A   Scattered Clouds
7:53 AM 50.0 °F 39.0 °F 66% 29.85 in 10.0 mi SSW 6.9 mph - N/A   Mostly Cloudy
8:53 AM 54.0 °F 41.0 °F 62% 29.84 in 10.0 mi SSW 8.1 mph - N/A   Mostly Cloudy
9:53 AM 57.0 °F 42.1 °F 57% 29.85 in 10.0 mi WSW 6.9 mph - N/A   Overcast
10:53 AM 55.9 °F 46.9 °F 72% 29.84 in 9.0 mi SSW 5.8 mph - 0.01 in Rain Light Rain
11:53 AM 61.0 °F 46.0 °F 58% 29.80 in 10.0 mi SSW 11.5 mph - 0.00 in   Scattered Clouds
12:53 PM 68.0 °F 46.0 °F 45% 29.78 in 10.0 mi SSW 13.8 mph - N/A   Mostly Cloudy
1:53 PM 71.1 °F 46.0 °F 41% 29.75 in 10.0 mi SW 9.2 mph - N/A   Partly Cloudy
2:53 PM 73.9 °F 46.0 °F 37% 29.72 in 10.0 mi SW 13.8 mph 23.0 mph N/A   Clear
3:53 PM 75.9 °F 46.0 °F 35% 29.69 in 10.0 mi SSW 10.4 mph - N/A   Clear
4:53 PM 78.1 °F 46.0 °F 32% 29.67 in 10.0 mi SW 15.0 mph 20.7 mph N/A   Clear
5:53 PM 75.9 °F 46.0 °F 35% 29.65 in 10.0 mi SSW 10.4 mph - N/A   Clear
6:53 PM 73.9 °F 45.0 °F 35% 29.65 in 10.0 mi SSW 15.0 mph 21.9 mph N/A   Clear
7:53 PM 72.0 °F 44.1 °F 37% 29.68 in 10.0 mi SW 9.2 mph - N/A   Clear
8:53 PM 73.0 °F 44.1 °F 35% 29.76 in 10.0 mi NW 8.1 mph - N/A   Mostly Cloudy
9:53 PM 66.0 °F 50.0 °F 56% 29.79 in 10.0 mi Calm Calm - N/A   Mostly Cloudy
10:53 PM 60.1 °F 48.9 °F 67% 29.82 in 10.0 mi Calm Calm - N/A   Overcast
11:53 PM 57.0 °F 50.0 °F 77% 29.83 in 10.0 mi Calm Calm - N/A   Partly Cloudy